When you browse on this site, cookies collect data to enhance your experience and personalize the content and advertising you see.
Visit our Privacy Policy to learn more. By continuing to use the site, you agree to this use of cookies and data.
  • în România
  • Lista ţărilor
  • Pe 7 zile
  • Temperatura apei
  • Hartă satelitară
  • Meteo pe hartă
  • Widget-uri
  • user-avatar
    Intrare

    Meteo pe oră la Laszow

    Astăzi, 22 Februarie, Vineri

    Timp Temperatura Precipitaţii Vânt Presiune Umiditate
    00:00 +5°C° 0.4 mm 5 m/s 742 mmHg 87%
    01:00 +4°C° 0 mm 4 m/s 742 mmHg 87%
    02:00 +4°C° 0.6 mm 4 m/s 742 mmHg 88%
    03:00 +3°C° 0.6 mm 5 m/s 742 mmHg 89%
    04:00 +3°C° 0.6 mm 5 m/s 742 mmHg 90%
    05:00 +2°C° 0.5 mm 6 m/s 743 mmHg 87%
    06:00 -1°C° 0.5 mm 7 m/s 743 mmHg 84%
    07:00 -3°C° 0 mm 7 m/s 745 mmHg 79%
    08:00 -4°C° 0 mm 7 m/s 746 mmHg 73%
    09:00 -4°C° 0 mm 7 m/s 747 mmHg 67%
    10:00 -4°C° 0 mm 7 m/s 749 mmHg 61%
    11:00 -4°C° 0 mm 7 m/s 749 mmHg 56%
    12:00 -4°C° 0 mm 7 m/s 750 mmHg 50%
    13:00 -4°C° 0 mm 7 m/s 751 mmHg 45%
    14:00 -4°C° 0 mm 7 m/s 752 mmHg 44%
    15:00 -6°C° 0 mm 7 m/s 752 mmHg 44%
    16:00 -6°C° 0 mm 7 m/s 753 mmHg 44%
    17:00 -5°C° 0 mm 6 m/s 753 mmHg 44%
    18:00 -6°C° 0 mm 6 m/s 754 mmHg 45%
    19:00 -6°C° 0 mm 5 m/s 755 mmHg 46%
    20:00 -6°C° 0 mm 5 m/s 755 mmHg 43%
    21:00 -6°C° 0 mm 5 m/s 756 mmHg 41%
    22:00 -7°C° 0 mm 5 m/s 757 mmHg 39%
    23:00 -7°C° 0 mm 5 m/s 757 mmHg 39%

    Mâine, 23 Februarie, Sâmbătă

    Timp Temperatura Precipitaţii Vânt Presiune Umiditate
    00:00 -7°C° 0 mm 5 m/s 757 mmHg 40%
    01:00 -7°C° 0 mm 4 m/s 758 mmHg 40%
    02:00 -7°C° 0 mm 4 m/s 758 mmHg 42%
    03:00 -7°C° 0 mm 4 m/s 758 mmHg 43%
    04:00 -6°C° 0 mm 3 m/s 758 mmHg 45%
    05:00 -6°C° 0 mm 3 m/s 758 mmHg 46%
    06:00 -6°C° 0 mm 3 m/s 759 mmHg 48%
    07:00 -7°C° 0 mm 3 m/s 759 mmHg 50%
    08:00 -6°C° 0 mm 3 m/s 759 mmHg 47%
    09:00 -5°C° 0 mm 3 m/s 759 mmHg 44%
    10:00 -5°C° 0 mm 3 m/s 760 mmHg 41%
    11:00 -4°C° 0 mm 3 m/s 759 mmHg 38%
    12:00 -2°C° 0 mm 3 m/s 759 mmHg 35%
    13:00 -2°C° 0 mm 2 m/s 759 mmHg 32%
    14:00 -2°C° 0 mm 2 m/s 759 mmHg 33%
    15:00 -2°C° 0 mm 2 m/s 759 mmHg 33%
    16:00 -2°C° 0 mm 2 m/s 758 mmHg 33%
    17:00 0°C° 0 mm 1 m/s 759 mmHg 37%
    18:00 -1°C° 0 mm 1 m/s 759 mmHg 40%
    19:00 -2°C° 0 mm 1 m/s 759 mmHg 44%
    20:00 -2°C° 0 mm 1 m/s 759 mmHg 44%
    21:00 -3°C° 0 mm 0 m/s 758 mmHg 45%
    22:00 -3°C° 0 mm 0 m/s 758 mmHg 45%
    23:00 -2°C° 0 mm 1 m/s 758 mmHg 45%

    Poimâine, 24 Februarie, Duminică

    Timp Temperatura Precipitaţii Vânt Presiune Umiditate
    00:00 -2°C° 0 mm 1 m/s 758 mmHg 45%
    01:00 -2°C° 0 mm 1 m/s 758 mmHg 45%
    02:00 -2°C° 0 mm 1 m/s 757 mmHg 44%
    03:00 -1°C° 0 mm 1 m/s 757 mmHg 42%
    04:00 -1°C° 0 mm 1 m/s 757 mmHg 41%
    05:00 -1°C° 0 mm 1 m/s 757 mmHg 41%
    06:00 -1°C° 0 mm 1 m/s 757 mmHg 41%
    07:00 -1°C° 0 mm 1 m/s 757 mmHg 42%
    08:00 -2°C° 0 mm 2 m/s 757 mmHg 37%
    09:00 -1°C° 0 mm 2 m/s 756 mmHg 32%
    10:00 +1°C° 0 mm 3 m/s 756 mmHg 27%
    11:00 +2°C° 0 mm 3 m/s 756 mmHg 25%
    12:00 +3°C° 0 mm 3 m/s 756 mmHg 24%
    13:00 +4°C° 0 mm 3 m/s 756 mmHg 23%
    14:00 +3°C° 0 mm 3 m/s 755 mmHg 27%
    15:00 +3°C° 0 mm 3 m/s 755 mmHg 32%
    16:00 +2°C° 0 mm 3 m/s 755 mmHg 36%
    17:00 +1°C° 0 mm 3 m/s 755 mmHg 39%
    18:00 0°C° 0 mm 3 m/s 755 mmHg 43%
    19:00 -1°C° 0 mm 3 m/s 755 mmHg 47%
    20:00 -1°C° 0 mm 3 m/s 755 mmHg 48%
    21:00 -1°C° 0 mm 3 m/s 756 mmHg 50%
    22:00 -1°C° 0 mm 3 m/s 756 mmHg 52%
    23:00 -1°C° 0 mm 3 m/s 756 mmHg 54%

    25 Februarie, Luni

    Timp Temperatura Precipitaţii Vânt Presiune Umiditate
    00:00 -1°C° 0 mm 3 m/s 755 mmHg 56%
    01:00 -1°C° 0 mm 3 m/s 755 mmHg 58%
    02:00 -2°C° 0 mm 4 m/s 755 mmHg 60%
    03:00 -2°C° 0 mm 4 m/s 755 mmHg 61%
    04:00 -2°C° 0 mm 4 m/s 755 mmHg 62%
    05:00 -2°C° 0 mm 4 m/s 755 mmHg 64%
    06:00 -2°C° 0 mm 4 m/s 755 mmHg 66%
    07:00 -2°C° 0 mm 4 m/s 755 mmHg 68%
    08:00 -1°C° 0 mm 4 m/s 755 mmHg 67%
    09:00 0°C° 0 mm 4 m/s 755 mmHg 66%
    10:00 +2°C° 0 mm 5 m/s 755 mmHg 65%
    11:00 +4°C° 0 mm 4 m/s 755 mmHg 65%
    12:00 +5°C° 0 mm 4 m/s 755 mmHg 65%
    13:00 +6°C° 0 mm 4 m/s 755 mmHg 65%
    14:00 +6°C° 0 mm 4 m/s 755 mmHg 67%
    15:00 +6°C° 0 mm 4 m/s 754 mmHg 69%
    16:00 +5°C° 0 mm 4 m/s 754 mmHg 71%
    17:00 +4°C° 0 mm 3 m/s 754 mmHg 76%
    18:00 +3°C° 0 mm 3 m/s 754 mmHg 82%
    19:00 +2°C° 0 mm 3 m/s 755 mmHg 87%
    20:00 +2°C° 0 mm 3 m/s 754 mmHg 88%
    21:00 +1°C° 0 mm 3 m/s 754 mmHg 88%
    22:00 +1°C° 0 mm 3 m/s 754 mmHg 89%
    23:00 0°C° 0 mm 4 m/s 753 mmHg 89%

    26 Februarie, Marţi

    Timp Temperatura Precipitaţii Vânt Presiune Umiditate
    00:00 0°C° 0 mm 4 m/s 753 mmHg 88%
    01:00 0°C° 0 mm 5 m/s 752 mmHg 88%
    02:00 0°C° 0 mm 5 m/s 752 mmHg 87%
    03:00 -1°C° 0 mm 6 m/s 751 mmHg 85%
    04:00 -1°C° 0 mm 6 m/s 750 mmHg 83%
    05:00 -1°C° 0 mm 6 m/s 750 mmHg 81%
    06:00 +1°C° 0 mm 6 m/s 750 mmHg 78%
    07:00 0°C° 0 mm 7 m/s 750 mmHg 75%
    08:00 +2°C° 0 mm 7 m/s 749 mmHg 70%
    09:00 +3°C° 0 mm 7 m/s 749 mmHg 65%
    10:00 +4°C° 0 mm 8 m/s 748 mmHg 60%
    11:00 +5°C° 0 mm 8 m/s 748 mmHg 60%
    12:00 +5°C° 0 mm 7 m/s 748 mmHg 60%
    13:00 +5°C° 0 mm 7 m/s 747 mmHg 60%
    14:00 +5°C° 0 mm 7 m/s 747 mmHg 63%
    15:00 +5°C° 0 mm 7 m/s 747 mmHg 67%
    16:00 +4°C° 0 mm 6 m/s 747 mmHg 70%
    17:00 +4°C° 0 mm 6 m/s 747 mmHg 74%
    18:00 +3°C° 0 mm 6 m/s 748 mmHg 78%
    19:00 +3°C° 0 mm 5 m/s 748 mmHg 82%
    20:00 +2°C° 0 mm 6 m/s 748 mmHg 81%
    21:00 +2°C° 0 mm 6 m/s 748 mmHg 81%
    22:00 +2°C° 0 mm 6 m/s 748 mmHg 80%
    23:00 +1°C° 0 mm 5 m/s 748 mmHg 79%

    27 Februarie, Miercuri

    Timp Temperatura Precipitaţii Vânt Presiune Umiditate
    00:00 +1°C° 0 mm 5 m/s 748 mmHg 77%
    01:00 0°C° 0 mm 5 m/s 748 mmHg 76%
    02:00 0°C° 0 mm 5 m/s 748 mmHg 76%
    03:00 -1°C° 0 mm 5 m/s 748 mmHg 77%
    04:00 -1°C° 0 mm 4 m/s 748 mmHg 77%
    05:00 -1°C° 0 mm 4 m/s 748 mmHg 77%
    06:00 -2°C° 0 mm 4 m/s 748 mmHg 76%
    07:00 -2°C° 0 mm 4 m/s 748 mmHg 76%
    08:00 0°C° 0 mm 4 m/s 748 mmHg 68%
    09:00 +1°C° 0 mm 5 m/s 748 mmHg 61%
    10:00 +3°C° 0 mm 5 m/s 748 mmHg 54%
    11:00 +5°C° 0 mm 5 m/s 748 mmHg 50%
    12:00 +6°C° 0 mm 5 m/s 747 mmHg 46%
    13:00 +7°C° 0 mm 5 m/s 747 mmHg 42%
    14:00 +7°C° 0 mm 4 m/s 747 mmHg 43%
    15:00 +7°C° 0 mm 4 m/s 746 mmHg 44%
    16:00 +7°C° 0 mm 4 m/s 746 mmHg 45%
    17:00 +5°C° 0 mm 3 m/s 746 mmHg 50%
    18:00 +5°C° 0 mm 2 m/s 746 mmHg 56%
    19:00 +4°C° 0 mm 2 m/s 746 mmHg 61%
    20:00 +4°C° 0 mm 2 m/s 745 mmHg 63%
    21:00 +3°C° 0 mm 2 m/s 745 mmHg 64%
    22:00 +2°C° 0 mm 3 m/s 744 mmHg 65%
    23:00 +2°C° 0 mm 3 m/s 744 mmHg 66%
    Arată mai mult